TimeEDT,TemperatureF,Dew PointF,Humidity,Sea Level PressureIn,VisibilityMPH,Wind Direction,Wind SpeedMPH,Gust SpeedMPH,PrecipitationIn,Events,Conditions,WindDirDegrees,DateUTC
12:56 AM,63.0,59.0,87,30.04,10.0,SE,5.8,-,N/A,,Overcast,140,2013-05-20 04:56:00
1:56 AM,62.1,59.0,90,30.02,9.0,SE,6.9,-,N/A,,Overcast,130,2013-05-20 05:56:00
2:56 AM,62.1,57.9,86,30.02,8.0,SE,4.6,-,N/A,,Mostly Cloudy,130,2013-05-20 06:56:00
3:13 AM,62.6,57.2,82,30.05,8.0,Calm,Calm,-,N/A,,Scattered Clouds,0,2013-05-20 07:13:00
3:56 AM,61.0,57.9,90,30.03,8.0,ESE,4.6,-,N/A,,Mostly Cloudy,110,2013-05-20 07:56:00
4:56 AM,62.1,59.0,90,30.04,8.0,SE,4.6,-,N/A,,Overcast,130,2013-05-20 08:56:00
5:56 AM,62.1,59.0,90,30.04,8.0,SSE,5.8,-,0.00,,Mostly Cloudy,150,2013-05-20 09:56:00
6:18 AM,62.6,59.0,88,30.08,7.0,Calm,Calm,-,N/A,,Mostly Cloudy,0,2013-05-20 10:18:00
6:56 AM,62.1,59.0,90,30.06,4.0,ENE,3.5,-,N/A,,Overcast,60,2013-05-20 10:56:00
7:56 AM,64.0,60.1,87,30.06,9.0,South,3.5,-,N/A,,Overcast,180,2013-05-20 11:56:00
8:03 AM,64.4,60.8,88,30.07,10.0,Variable,4.6,-,N/A,,Overcast,0,2013-05-20 12:03:00
8:39 AM,66.2,60.8,83,30.09,10.0,Calm,Calm,-,N/A,,Mostly Cloudy,0,2013-05-20 12:39:00
8:56 AM,66.9,60.1,79,30.06,10.0,SSE,4.6,-,N/A,,Overcast,150,2013-05-20 12:56:00
9:27 AM,69.8,60.8,73,30.07,10.0,South,5.8,-,N/A,,Partly Cloudy,170,2013-05-20 13:27:00
9:56 AM,71.1,62.1,73,30.04,10.0,SSE,6.9,-,N/A,,Partly Cloudy,150,2013-05-20 13:56:00
10:21 AM,71.6,62.6,73,30.06,10.0,Variable,3.5,-,N/A,,Mostly Cloudy,0,2013-05-20 14:21:00
10:56 AM,73.0,61.0,66,30.04,10.0,Calm,Calm,-,N/A,,Overcast,0,2013-05-20 14:56:00
11:56 AM,75.0,61.0,62,30.03,10.0,Variable,4.6,-,N/A,,Mostly Cloudy,0,2013-05-20 15:56:00
12:07 PM,75.2,60.8,61,30.06,10.0,Calm,Calm,-,N/A,,Scattered Clouds,0,2013-05-20 16:07:00
12:25 PM,75.2,60.8,61,30.05,10.0,Calm,Calm,-,N/A,,Mostly Cloudy,0,2013-05-20 16:25:00
12:47 PM,78.8,62.6,57,30.04,10.0,Variable,5.8,-,N/A,,Mostly Cloudy,0,2013-05-20 16:47:00
12:56 PM,75.9,62.1,62,30.00,10.0,Variable,4.6,-,N/A,,Partly Cloudy,0,2013-05-20 16:56:00
1:56 PM,78.1,61.0,56,30.01,10.0,Calm,Calm,-,N/A,,Overcast,0,2013-05-20 17:56:00
2:56 PM,80.1,61.0,52,29.99,10.0,SW,5.8,-,N/A,,Mostly Cloudy,230,2013-05-20 18:56:00
3:56 PM,80.1,61.0,52,29.97,10.0,SW,8.1,-,N/A,,Mostly Cloudy,230,2013-05-20 19:56:00
4:56 PM,82.0,61.0,49,29.94,10.0,South,8.1,-,N/A,,Clear,190,2013-05-20 20:56:00
5:56 PM,82.0,61.0,49,29.93,10.0,Variable,4.6,-,N/A,,Mostly Cloudy,0,2013-05-20 21:56:00
6:56 PM,81.0,60.1,49,29.93,10.0,SSW,4.6,-,N/A,,Partly Cloudy,210,2013-05-20 22:56:00
7:56 PM,75.0,61.0,62,29.94,10.0,SSW,3.5,-,N/A,,Clear,210,2013-05-20 23:56:00
8:56 PM,75.0,60.1,60,29.94,10.0,SSE,4.6,-,N/A,,Clear,160,2013-05-21 00:56:00
9:56 PM,73.9,62.1,66,29.94,10.0,SSE,4.6,-,N/A,,Clear,160,2013-05-21 01:56:00
10:56 PM,72.0,62.1,71,29.96,10.0,Variable,3.5,-,N/A,,Clear,0,2013-05-21 02:56:00
11:56 PM,72.0,62.1,71,29.96,10.0,SSW,3.5,-,N/A,,Mostly Cloudy,200,2013-05-21 03:56:00